• Preparing MPCs (Info)

  • MPEC 2010-Y07 : 2010 XQ69

    The following Minor Planet Electronic Circular may be linked-to from your own Web pages, but must not otherwise be redistributed electronically.

    A form allowing access to any MPEC is at the bottom of this page.


    Read MPEC 2010-Y06 Read MPEC 2010-Y08


    M.P.E.C. 2010-Y07                                Issued 2010 Dec. 16, 16:33 UT
    
         The Minor Planet Electronic Circulars contain information on unusual
             minor planets and routine data on comets.  They are published
       on behalf of Commission 20 of the International Astronomical Union by the
              Minor Planet Center, Smithsonian Astrophysical Observatory,
                              Cambridge, MA 02138, U.S.A.
    
                 Prepared using the Tamkin Foundation Computer Network
    
                                  MPC@CFA.HARVARD.EDU
           URL http://www.minorplanetcenter.org/iau/mpc.html  ISSN 1523-6714
    
                                       2010 XQ69
    
    Observations:
         K10X69Q* C2010 12 14.24058 05 05 52.58 +16 51 16.7          20.2 VrEY007G96
         K10X69Q  C2010 12 14.24575 05 05 50.71 +16 51 16.1          20.4 VrEY007G96
         K10X69Q  C2010 12 14.25085 05 05 48.91 +16 51 15.3          20.2 VrEY007G96
         K10X69Q  C2010 12 14.25610 05 05 47.04 +16 51 15.0          20.0 VrEY007G96
         K10X69Q  C2010 12 14.28351 05 05 37.24 +16 51 11.0          20.3 VrEY007G96
         K10X69Q  C2010 12 14.29101 05 05 34.51 +16 51 09.9          19.9 VrEY007G96
         K10X69Q  C2010 12 14.29843 05 05 31.92 +16 51 09.0          20.3 VrEY007G96
         K10X69Q  C2010 12 14.30058 05 05 31.01 +16 51 07.7          20.5 RoEY007H01
         K10X69Q  C2010 12 14.30593 05 05 29.22 +16 51 07.2          19.6 VrEY007G96
         K10X69Q  C2010 12 14.31232 05 05 26.83 +16 51 05.9          20.3 RoEY007H01
         K10X69Q  C2010 12 14.32328 05 05 22.94 +16 51 04.3          20.7 RoEY007H01
         K10X69Q  C2010 12 14.33441 05 05 18.97 +16 51 02.4          20.3 RoEY007H01
         K10X69Q  C2010 12 15.26491 05 00 08.52 +16 48 45.7                rEY007G96
         K10X69Q  C2010 12 15.26596 05 00 08.13 +16 48 45.3                rEY007G96
         K10X69Q  C2010 12 15.26810 05 00 07.36 +16 48 45.4          20.4 VrEY007G96
         K10X69Q  C2010 12 16.17075 04 55 17.90 +16 46 19.5          21.1 VrEY007G96
         K10X69Q  C2010 12 16.17127 04 55 17.72 +16 46 19.5          21.3 VrEY007G96
         K10X69Q  C2010 12 16.17234 04 55 17.47 +16 46 19.3          21.1 VrEY007G96
         K10X69Q  C2010 12 16.19006 04 55 11.64 +16 46 17.4          20.3 VrEY007G96
         K10X69Q  C2010 12 16.19073 04 55 11.35 +16 46 17.1          21.0 VrEY007G96
    
    Observer details:
    G96 Mt. Lemmon Survey.  Observers R. E. Hill, A. R. Gibbs, J. P. Matthews,
        H. V. Sherman.  Measurers J. D. Ahern, E. C. Beshore, A. Boattini,
        G. J. Garradd, A. R. Gibbs, A. D. Grauer, R. E. Hill, R. A. Kowalski,
        S. M. Larson, R. H. McNaught.  1.5-m reflector + CCD.
    H01 Magdalena Ridge Observatory, Socorro.  Observer W. H. Ryan.  2.4-m f/8.9
        reflector + CCD.
    
    Orbital elements:
    2010 XQ69                                                Earth MOID = 0.0079 AU
    Epoch 2011 Feb. 8.0 TT = JDT 2455600.5                  MPC
    M 199.50729              (2000.0)            P               Q
    n   1.20211473     Peri.  105.58580     +0.21226370     +0.97721181
    a   0.8760027      Node   176.66865     -0.90367252     +0.19671817
    e   0.4432094      Incl.    1.08478     -0.37191411     +0.07974363
    P   0.82           H   22.9           G   0.15           U   9
    Residuals in seconds of arc
    101214 G96  0.2+  0.1+    101214 H01  0.1+  0.2+    101215 G96  0.5-  0.0
    101214 G96  0.2-  0.1+    101214 G96  0.3-  0.7-    101216 G96  0.4-  0.1-
    101214 G96  0.1+  0.1-    101214 H01  0.1+  0.1+    101216 G96  0.5-  0.0
    101214 G96  0.2+  0.3+    101214 H01  0.3+  0.2+    101216 G96  0.9+  0.1-
    101214 G96  0.0   0.1-    101214 H01  0.1+  0.1+    101216 G96  0.5+  0.3+
    101214 G96  0.7-  0.1-    101215 G96  0.5+  0.2-    101216 G96  0.5-  0.1+
    101214 G96  0.1+  0.0     101215 G96  0.0   0.4-
    
    Ephemeris:
    2010 XQ69                a,e,i = 0.88, 0.44, 1                   q = 0.4878
    Date    TT    R. A. (2000) Decl.     Delta      r     Elong.  Phase     V
    2010 11 16    08 15 19.4 +14 11 07   0.1946  1.0726   110.4    59.8    21.6
    ...
    2010 12 01    06 36 26.5 +16 36 06   0.1849  1.1487   149.1    26.2    20.7
    ...
    2010 12 09    05 38 42.6 +16 58 30   0.1990  1.1813   169.6     8.7    20.3
    ...
    2010 12 15    05 01 35.9 +16 49 37   0.2201  1.2022   171.0     7.3    20.5
    2010 12 16    04 56 10.8 +16 47 00   0.2244  1.2054   169.2     8.8    20.7
    2010 12 17    04 50 59.8 +16 44 14   0.2289  1.2085   167.3    10.3    20.8
    ...
    2010 12 23    04 24 45.1 +16 27 13   0.2599  1.2252   155.7    19.3    21.4
    ...
    2010 12 31    04 01 27.8 +16 13 01   0.3096  1.2429   142.3    28.9    22.1
    ...
    2011 01 15    03 43 53.1 +16 28 40   0.4184  1.2618   123.1    40.8    23.1
    
    Sonia Keys                   (C) Copyright 2010 MPC           M.P.E.C. 2010-Y07
    

    Read MPEC 2010-Y06 Read MPEC 2010-Y08


    MPEC number:

    Enter an MPEC number in one of the following forms:

    • 1997-B01 (the full form)
    • J97B01 (the packed version of the full form)
    • B01 (the abbreviated form)